EW4092 Weather Reports


time (UTC)temp
F
wind
direction
speed
knots
gust
knots
rain 1hr
in
rain 24hr
in
rain mn
in
humidity
%
barometer
mb
20260507121540 53 102 0.0 5.2 0.00 0.00 0.00 60 1015.0
20260507120029 54 79 0.9 5.2 0.00 0.00 0.00 59 1015.1
20260507114527 55 118 0.0 3.5 0.00 0.00 0.00 57 1015.0
20260507113033 55 108 0.9 7.8 0.00 0.00 0.00 57 1015.0
20260507111525 56 135 1.7 6.1 0.00 0.00 0.00 57 1015.1
20260507110027 56 117 1.7 5.2 0.00 0.00 0.00 57 1015.0
20260507104519 57 105 1.7 6.1 0.00 0.00 0.00 56 1014.9
20260507103018 57 159 0.9 6.1 0.00 0.00 0.00 56 1014.8
20260507101521 57 163 1.7 6.1 0.00 0.00 0.00 57 1014.8
20260507100021 57 270 1.7 5.2 0.00 0.00 0.00 57 1015.0
20260507094512 58 122 0.9 6.1 0.00 0.00 0.00 55 1014.8
20260507093022 58 115 3.5 7.8 0.00 0.00 0.00 56 1014.7
20260507091509 58 117 0.9 7.0 0.00 0.00 0.00 57 1014.7
20260507090006 58 100 2.6 8.7 0.00 0.00 0.00 56 1014.5
20260507084502 59 165 0.9 7.8 0.00 0.00 0.00 55 1014.4
20260507083104 59 135 1.7 9.6 0.00 0.00 0.00 56 1014.2
20260507081558 59 156 1.7 5.2 0.00 0.00 0.00 56 1014.0
20260507080131 59 212 1.7 9.6 0.00 0.00 0.00 56 1014.0
20260507074601 60 177 2.6 6.1 0.00 0.00 0.00 54 1014.0
20260507073059 61 163 4.3 9.6 0.00 0.00 0.00 52 1013.8
20260507071600 61 160 1.7 7.8 0.00 0.00 0.00 52 1013.9
20260507070045 60 135 2.6 6.1 0.00 0.00 0.00 54 1014.0
20260507064550 60 169 3.5 7.0 0.00 0.00 0.00 54 1014.2
20260507063043 61 86 2.6 8.7 0.00 0.00 0.00 53 1014.2
20260507061543 61 233 2.6 7.8 0.00 0.00 0.00 54 1014.2
20260507060042 61 188 0.9 3.5 0.00 0.00 0.00 54 1014.4
20260507054549 62 177 0.0 5.2 0.00 0.00 0.00 51 1014.4
20260507053046 63 93 1.7 7.0 0.00 0.00 0.00 48 1014.3
20260507051540 64 91 1.7 6.1 0.00 0.00 0.00 46 1014.1
20260507050039 65 109 2.6 7.8 0.00 0.00 0.00 44 1014.3
20260507044539 67 139 0.9 7.0 0.00 0.00 0.00 41 1014.2
20260507043040 68 259 0.0 7.8 0.00 0.00 0.00 38 1014.1
20260507041536 69 159 0.0 4.3 0.00 0.00 0.00 38 1014.1
20260507040035 70 111 2.6 8.7 0.00 0.00 0.00 34 1013.9
20260507034534 70 108 4.3 7.0 0.00 0.00 0.00 33 1013.5
20260507033037 71 72 3.5 7.8 0.00 0.00 0.00 33 1013.5
20260507031534 71 98 3.5 11.3 0.00 0.00 0.00 32 1013.3
20260507030033 72 103 4.3 9.6 0.00 0.00 0.00 31 1013.2
20260507024534 74 94 6.1 10.4 0.00 0.00 0.00 30 1013.2
20260507023031 74 135 5.2 13.9 0.00 0.00 0.00 29 1013.0
20260507021531 74 124 10.4 17.4 0.00 0.00 0.00 28 1012.9
20260507020033 74 103 7.8 19.1 0.00 0.00 0.00 28 1012.9
20260507014529 74 103 8.7 17.4 0.00 0.00 0.00 28 1012.8
20260507013035 74 120 5.2 13.0 0.00 0.00 0.00 28 1012.7
20260507011536 74 119 6.1 14.8 0.00 0.00 0.00 29 1012.7
20260507010028 75 82 7.8 13.0 0.00 0.00 0.00 29 1012.7
20260507004525 75 110 5.2 8.7 0.00 0.00 0.00 30 1012.7
20260507003025 75 94 6.1 12.2 0.00 0.00 0.00 31 1012.6
20260507001526 76 86 7.8 13.0 0.00 0.00 0.00 30 1012.5
20260507000024 77 103 6.1 12.2 0.00 0.00 0.00 30 1012.3
20260506234530 77 89 4.3 8.7 0.00 0.00 0.00 30 1012.1
20260506233023 78 93 7.0 14.8 0.00 0.00 0.00 29 1012.0
20260506231524 79 82 6.1 10.4 0.00 0.00 0.00 28 1012.0
20260506230022 80 77 5.2 13.9 0.00 0.00 0.00 26 1012.0
20260506224527 81 77 3.5 11.3 0.00 0.00 0.00 26 1012.1
20260506223021 82 125 6.1 14.8 0.00 0.00 0.00 26 1012.2
20260506221520 82 105 7.0 12.2 0.00 0.00 0.00 26 1012.2
20260506220020 84 77 7.0 17.4 0.00 0.00 0.00 26 1012.0
20260506214519 84 121 5.2 10.4 0.00 0.00 0.00 25 1012.0
20260506213021 86 119 6.1 11.3 0.00 0.00 0.00 23 1011.9
20260506211518 87 134 4.3 8.7 0.00 0.00 0.00 23 1011.8
20260506210020 87 84 3.5 8.7 0.00 0.00 0.00 24 1011.9
20260506204516 87 203 1.7 9.6 0.00 0.00 0.00 23 1011.8
20260506203015 87 94 3.5 7.8 0.00 0.00 0.00 24 1012.0
20260506201518 86 115 2.6 7.0 0.00 0.00 0.00 26 1012.0
20260506200012 85 115 1.7 6.1 0.00 0.00 0.00 28 1012.1
20260506194508 84 112 0.9 3.5 0.00 0.00 0.00 28 1012.1
20260506193009 84 71 2.6 5.2 0.00 0.00 0.00 28 1012.4
20260506191506 84 79 0.9 4.3 0.00 0.00 0.00 29 1012.5
20260506190004 83 129 0.0 4.3 0.00 0.00 0.00 30 1012.4
20260506184502 82 108 0.0 4.3 0.00 0.00 0.00 28 1012.5
20260506183111 82 155 0.9 4.3 0.00 0.00 0.00 29 1012.6
20260506181601 81 120 2.6 7.8 0.00 0.00 0.00 31 1012.8
20260506180057 81 126 1.7 3.5 0.00 0.00 0.00 33 1012.8
20260506174606 79 73 0.0 2.6 0.00 0.00 0.00 35 1012.9
20260506173055 79 235 0.0 2.6 0.00 0.00 0.00 35 1013.0
20260506171547 79 331 1.7 4.3 0.00 0.00 0.00 38 1013.0
20260506170046 77 114 0.9 3.5 0.00 0.00 0.00 36 1013.1
20260506164547 76 149 0.0 6.1 0.00 0.00 0.00 37 1013.1
20260506163055 75 76 0.0 3.5 0.00 0.00 0.00 39 1013.2
20260506161537 75 98 0.9 2.6 0.00 0.00 0.00 41 1013.4
20260506160035 74 350 1.7 6.1 0.00 0.00 0.00 42 1013.6
20260506154536 73 94 0.0 5.2 0.00 0.00 0.00 43 1013.5
20260506153031 72 92 2.6 6.1 0.00 0.00 0.00 42 1013.7
20260506151528 70 152 0.9 6.1 0.00 0.00 0.00 45 1013.7
20260506150019 67 63 0.0 0.9 0.00 0.00 0.00 49 1013.8
20260506144516 64 64 0.0 1.7 0.00 0.00 0.00 54 1013.9
20260506143015 63 66 0.0 1.7 0.00 0.00 0.00 54 1013.8
20260506141513 61 68 0.0 0.9 0.00 0.00 0.00 55 1013.7
20260506140019 58 44 1.7 4.3 0.00 0.00 0.00 59 1013.9
20260506134511 57 256 0.9 1.7 0.00 0.00 0.00 63 1013.5
20260506133011 54 79 0.0 0.9 0.00 0.00 0.00 68 1013.4
20260506131517 52 77 0.0 0.9 0.00 0.00 0.00 70 1013.4
20260506130007 51 74 0.0 0.9 0.00 0.00 0.00 71 1013.1
20260506124505 50 73 0.0 0.9 0.00 0.00 0.00 71 1012.9
20260506123008 50 70 0.0 0.9 0.00 0.00 0.00 71 1013.0